[[{"header":{"parameterUnit":"m.s-1","parameterCategory":1,"la1":30.2991,"la2":30.254,"lo1":-89.0895,"lo2":-89.0444,"dx":0.0017,"dy":0.0017,"nx":28,"ny":28,"refTime":"2022-11-29T09:00:00:Z","depth":0,"parameterNumber":2,"parameterNumberName":"U-component_of_WINDS"},"data":[0,0,0,0,0,0,0,0,0,0,0,0,0,0,0,0,0,0,0,0,0,0,0,0,0,0,0,0,0,0,0,0,0,0,0,0,0,0,0,0,0,0,0,0,0,0,0,0,0,0,0,0,0,0,0,0,0,0,-2.6441,-2.6442,0,-2.655,-2.6552,-2.6553,-2.6599,-2.6599,-2.6598,-2.6598,-2.6708,-2.6711,-2.6714,0,0,0,0,0,0,0,0,0,0,0,0,0,-2.6268,-2.6271,-2.6441,-2.6442,-2.6443,-2.655,-2.6552,-2.6553,-2.6599,-2.6599,-2.6598,-2.6598,-2.6707,-2.6711,-2.6715,0,0,0,0,0,0,0,0,0,0,0,0,0,-2.6357,-2.6272,-2.644,-2.6479,-2.6484,-2.655,-2.6552,-2.6554,-2.6599,-2.6599,-2.6598,-2.6598,-2.6706,-2.6711,-2.6715,-2.675,0,0,-2.6729,-2.6731,0,0,0,0,0,0,0,0,-2.6352,-2.6363,-2.6472,-2.6477,-2.6482,-2.6561,-2.6531,-2.6619,-2.6599,-2.6555,-2.6598,-2.6598,-2.6659,-2.6668,-2.6689,-2.6756,-2.676,-2.673,-2.6733,-2.6735,-2.6736,0,0,0,0,0,0,0,-2.6345,-2.6359,-2.6484,-2.6474,-2.648,-2.649,-2.6502,-2.6548,-2.6607,-2.6559,-2.6562,-2.6575,-2.6662,-2.6684,-2.6692,-2.6762,-2.673,-2.6734,-2.6737,-2.6739,-2.6862,-2.6862,0,0,0,0,0,0,-2.6333,-2.6353,-2.6481,-2.6487,-2.6415,-2.6493,-2.6507,-2.6536,-2.6607,-2.6618,-2.6575,-2.6577,-2.6676,-2.6686,-2.6696,-2.6741,-2.6735,-2.6739,-2.6742,-2.6861,-2.6862,-2.6862,0,0,0,0,0,0,-2.6329,-2.6344,-2.6476,-2.6421,-2.6439,-2.6497,-2.6528,-2.6538,-2.6561,-2.6619,-2.663,-2.6587,-2.6677,-2.6689,-2.6736,-2.6746,-2.6741,-2.6745,-2.6861,-2.6862,-2.6862,-2.6833,0,0,0,0,0,0,-2.6324,-2.6343,-2.6357,-2.6421,-2.6442,-2.6516,-2.6529,-2.654,-2.6569,-2.6572,-2.6634,-2.6644,-2.6677,-2.6729,-2.6741,-2.6752,-2.6749,-2.686,-2.6861,-2.6862,-2.6833,-2.6832,-2.6832,0,0,0,0,0,-2.6318,-2.6344,-2.6358,-2.6373,-2.6461,-2.6516,-2.6528,-2.6567,-2.6569,-2.6584,-2.6622,-2.6642,-2.6743,-2.6734,-2.6747,-2.676,-2.686,-2.6861,-2.6862,-2.6834,-2.6833,-2.6832,0,0,0,0,0,0,-2.6279,-2.6353,-2.6369,-2.6417,-2.646,-2.6524,-2.6544,-2.6564,-2.6607,-2.6608,-2.6653,-2.6667,-2.671,-2.674,-2.6728,-2.6797,-2.6803,-2.6807,-2.6777,-2.6776,-2.6775,-2.6767,-2.6753,0,0,0,0,0,-2.6277,-2.6316,-2.6378,-2.6414,-2.6435,-2.6485,-2.6511,-2.6537,-2.6583,-2.6601,-2.6642,-2.6685,-2.6727,-2.6753,-2.6795,-2.6838,-2.6851,-2.6853,-2.6852,-2.6851,-2.6854,-2.6879,-2.688,-2.6866,-2.6866,-2.6866,0,0,-2.6271,-2.6316,-2.6338,-2.6408,-2.6444,-2.6482,-2.65,-2.6541,-2.6569,-2.6607,-2.6654,-2.6686,-2.6737,-2.6782,-2.6804,-2.6808,-2.6861,-2.6853,-2.6852,-2.6855,-2.688,-2.6881,-2.6882,-2.6867,-2.6866,-2.6866,0,0,-2.6281,-2.6319,-2.6353,-2.6389,-2.6444,-2.6477,-2.6485,-2.6546,-2.6568,-2.6617,-2.6645,-2.668,-2.675,-2.6785,-2.6812,-2.6834,-2.6854,-2.6846,-2.6842,-2.6865,-2.6867,-2.6868,-2.6875,-2.6877,-2.6849,-2.6849,-2.6848,0,-2.6267,-2.6327,-2.6368,-2.6407,-2.6436,-2.6472,-2.6506,-2.6539,-2.6604,-2.6623,-2.6627,-2.6716,-2.6753,-2.6806,-2.6812,-2.6832,-2.6842,-2.6839,-2.6863,-2.6865,-2.6866,-2.6874,-2.6877,-2.6847,-2.6847,-2.6848,-2.6848,0,-2.6306,-2.6347,-2.6368,-2.6431,-2.6462,-2.6499,-2.6544,-2.6571,-2.6594,-2.6627,-2.6675,-2.672,-2.6771,-2.6786,-2.6809,-2.6842,-2.6843,-2.6854,-2.6861,-2.6866,-2.6874,-2.6877,-2.6845,-2.6846,-2.6846,-2.6847,0,0,-2.6296,-2.638,-2.6387,-2.6415,-2.6478,-2.651,-2.6547,-2.6598,-2.6619,-2.6663,-2.6695,-2.6753,-2.6764,-2.6795,-2.6821,-2.6842,-2.6855,-2.6851,-2.6853,-2.685,-2.6895,-2.6886,-2.6888,-2.6869,-2.6869,-2.687,-2.689,0,-2.6313,-2.6383,-2.642,-2.6473,-2.6511,-2.6545,-2.6578,-2.6619,-2.665,-2.6686,-2.672,-2.6761,-2.6772,-2.6791,-2.6812,-2.6849,-2.6865,-2.6848,-2.6898,-2.6899,-2.6884,-2.6893,-2.6883,-2.69,-2.6894,-2.6894,-2.6895,0,-2.6344,-2.6387,-2.6444,-2.6501,-2.6518,-2.6547,-2.6596,-2.663,-2.6677,-2.6698,-2.6732,-2.6758,-2.6798,-2.6801,-2.6856,-2.6844,-2.6866,-2.6887,-2.6889,-2.6895,-2.6897,-2.6899,-2.6907,-2.6909,-2.69,-2.6899,-2.6899,0,-2.6329,-2.6402,-2.6445,-2.6468,-2.6536,-2.6555,-2.6585,-2.6632,-2.6659,-2.6701,-2.672,-2.6766,-2.6791,-2.6826,-2.6864,-2.6862,-2.6914,-2.6921,-2.6933,-2.6931,-2.6942,-2.6941,-2.6954,-2.6956,-2.6956,-2.6956,-2.6956,0,-2.6345,-2.6379,-2.6439,-2.6466,-2.6504,-2.6546,-2.6582,-2.6614,-2.6655,-2.6688,-2.672,-2.675,-2.6798,-2.6834,-2.6864,-2.6904,-2.6915,-2.6933,-2.6941,-2.693,-2.6928,-2.6946,-2.6945,-2.6957,-2.6957,-2.6957,-2.6957,0,-2.6336,-2.6378,-2.6427,-2.6488,-2.6504,-2.6529,-2.658,-2.6607,-2.6639,-2.668,-2.6692,-2.6743,-2.6786,-2.6828,-2.6886,-2.6906,-2.6946,-2.6956,-2.693,-2.6934,-2.6944,-2.6942,-2.6969,-2.6974,-2.6973,-2.6973,-2.6973,0,-2.6343,-2.637,-2.6433,-2.6457,-2.6486,-2.6525,-2.6553,-2.6596,-2.6624,-2.6679,-2.6698,-2.6744,-2.6783,-2.6851,-2.6893,-2.6937,-2.6948,-2.6954,-2.6955,-2.6944,-2.6948,-2.6946,-2.6949,-2.6953,-2.6953,-2.6953,-2.6953,0,-2.6352,-2.6371,-2.6411,-2.6458,-2.6491,-2.653,-2.657,-2.6588,-2.6638,-2.6667,-2.6712,-2.6743,-2.6802,-2.6847,-2.6896,-2.6925,-2.6947,-2.6952,-2.6957,-2.6947,-2.6931,-2.694,-2.6928,-2.6951,-2.6952,-2.6952,-2.6952,-2.6952,-2.6351,-2.6376,-2.6424,-2.6467,-2.6501,-2.6538,-2.6566,-2.6602,-2.664,-2.6692,-2.6714,-2.676,-2.6805,-2.6874,-2.6903,-2.6938,-2.6943,-2.6951,-2.6953,-2.6954,-2.6951,-2.6925,-2.6947,-2.6947,-2.6947,-2.6948,-2.6948,0,-2.6361,-2.6393,-2.6432,-2.6487,-2.6521,-2.6539,-2.6584,-2.6611,-2.665,-2.6691,-2.6729,-2.678,-2.6824,-2.6869,-2.6915,-2.6935,-2.6946,-2.6945,-2.6944,-2.6951,-2.6944,-2.6935,-2.6935,-2.6935,-2.6935,-2.6935,-2.6935,-2.6935,-2.637,-2.6413,-2.6437,-2.6497,-2.6529,-2.6574,-2.6598,-2.6632,-2.6665,-2.6721,-2.6757,-2.6786,-2.6829,-2.6878,-2.6918,-2.6931,-2.6946,-2.6942,-2.6957,-2.695,-2.6951,-2.6952,-2.6943,-2.6945,-2.6945,-2.696,-2.6961,-2.6961]},{"header":{"parameterUnit":"m.s-1","parameterCategory":1,"la1":30.2991,"la2":30.254,"lo1":-89.0895,"lo2":-89.0444,"dx":0.0017,"dy":0.0017,"nx":28,"ny":28,"refTime":"2022-11-29T09:00:00:Z","depth":0,"parameterNumber":3,"parameterNumberName":"V-component_of_WINDS"},"data":[0,0,0,0,0,0,0,0,0,0,0,0,0,0,0,0,0,0,0,0,0,0,0,0,0,0,0,0,0,0,0,0,0,0,0,0,0,0,0,0,0,0,0,0,0,0,0,0,0,0,0,0,0,0,0,0,0,0,4.6809,4.681,0,4.688,4.6881,4.6882,4.6876,4.6875,4.6874,4.6873,4.6941,4.6944,4.6947,0,0,0,0,0,0,0,0,0,0,0,0,0,4.6667,4.6669,4.6809,4.681,4.6811,4.688,4.6881,4.6882,4.6876,4.6875,4.6873,4.6872,4.694,4.6944,4.6947,0,0,0,0,0,0,0,0,0,0,0,0,0,4.6732,4.667,4.6809,4.6816,4.6818,4.688,4.6881,4.6882,4.6876,4.6875,4.6873,4.6872,4.6939,4.6943,4.6947,4.7006,0,0,4.696,4.6962,0,0,0,0,0,0,0,0,4.6728,4.6737,4.6814,4.6816,4.6818,4.6868,4.6856,4.6923,4.6877,4.6854,4.6873,4.6871,4.6918,4.6924,4.694,4.7009,4.7012,4.6961,4.6963,4.6965,4.6966,0,0,0,0,0,0,0,4.6724,4.6734,4.6837,4.6815,4.6818,4.6816,4.6823,4.6869,4.6894,4.6856,4.6855,4.6864,4.6918,4.6936,4.6942,4.7013,4.6961,4.6964,4.6967,4.6969,4.7137,4.7139,0,0,0,0,0,0,4.6718,4.6731,4.6835,4.6839,4.6768,4.682,4.6828,4.6853,4.6893,4.6898,4.6866,4.6864,4.693,4.6937,4.6944,4.7019,4.6965,4.6969,4.6971,4.7135,4.7138,4.714,0,0,0,0,0,0,4.6715,4.6727,4.6832,4.6785,4.6798,4.6824,4.6852,4.6855,4.6873,4.6901,4.6905,4.688,4.6929,4.6938,4.6992,4.7021,4.6971,4.6975,4.7133,4.7136,4.7139,4.7166,0,0,0,0,0,0,4.6711,4.6726,4.6749,4.6786,4.6801,4.6879,4.6854,4.6858,4.6881,4.688,4.6915,4.6919,4.6928,4.6986,4.6996,4.7026,4.6978,4.7131,4.7135,4.7138,4.7163,4.717,4.7176,0,0,0,0,0,4.6706,4.6752,4.675,4.6763,4.683,4.6881,4.6889,4.69,4.6883,4.6907,4.6925,4.6918,4.7016,4.6991,4.7003,4.7034,4.7129,4.7133,4.7138,4.716,4.7168,4.7175,0,0,0,0,0,0,4.6715,4.6756,4.6755,4.6814,4.6844,4.6879,4.6909,4.6908,4.6942,4.6938,4.6949,4.6957,4.7012,4.7028,4.7,4.7095,4.707,4.7077,4.7083,4.7091,4.7098,4.7094,4.6982,0,0,0,0,0,4.6725,4.6763,4.6797,4.6846,4.6861,4.6883,4.6905,4.6911,4.6942,4.6954,4.6976,4.7005,4.7043,4.7068,4.7103,4.7165,4.7174,4.7192,4.7199,4.7204,4.721,4.7248,4.7258,4.7154,4.7154,4.7154,0,0,4.6743,4.6771,4.6794,4.6849,4.6873,4.6913,4.6893,4.6935,4.6966,4.696,4.7014,4.7031,4.7064,4.7123,4.715,4.7138,4.7241,4.7209,4.7213,4.7217,4.7254,4.7264,4.7272,4.7157,4.7157,4.7156,0,0,4.6799,4.6823,4.6869,4.6894,4.6932,4.6946,4.6957,4.6994,4.7006,4.706,4.7058,4.7094,4.7157,4.7183,4.7204,4.7274,4.727,4.7285,4.7319,4.7356,4.7364,4.7371,4.74,4.741,4.7291,4.7291,4.7291,0,4.6818,4.688,4.6892,4.6937,4.6962,4.6961,4.7008,4.7031,4.7078,4.7096,4.7082,4.7165,4.7187,4.7254,4.7272,4.7288,4.7302,4.7282,4.7362,4.737,4.7377,4.7404,4.7414,4.7293,4.7293,4.7292,4.7292,0,4.6903,4.6946,4.6978,4.7027,4.7056,4.7101,4.712,4.7147,4.7152,4.7168,4.7225,4.7252,4.7295,4.7311,4.7313,4.738,4.7372,4.736,4.7335,4.7388,4.7414,4.7425,4.7295,4.7295,4.7294,4.7294,0,0,4.6966,4.7024,4.7036,4.706,4.7103,4.7136,4.7182,4.7227,4.7252,4.7285,4.7325,4.7381,4.7372,4.7396,4.7402,4.7434,4.7493,4.7419,4.742,4.7435,4.7571,4.7583,4.7594,4.749,4.7492,4.7493,4.757,0,4.7029,4.7114,4.7127,4.7201,4.7243,4.7244,4.7285,4.7316,4.7333,4.7371,4.7388,4.743,4.7412,4.7428,4.7459,4.7479,4.7521,4.7473,4.7529,4.7531,4.7524,4.7607,4.7618,4.769,4.758,4.7581,4.7583,0,4.7114,4.7153,4.7233,4.7275,4.7292,4.7329,4.7374,4.7409,4.7445,4.7455,4.7484,4.7487,4.7536,4.7509,4.7578,4.7545,4.7569,4.7582,4.7585,4.7593,4.7562,4.7621,4.7712,4.7724,4.7598,4.7597,4.7596,0,4.7158,4.7229,4.7287,4.7307,4.7356,4.7383,4.7404,4.7438,4.7466,4.7504,4.7523,4.7564,4.7588,4.7621,4.7636,4.7614,4.7706,4.7678,4.7717,4.7717,4.7738,4.7737,4.7838,4.7748,4.7748,4.7748,4.7747,0,4.7229,4.7278,4.7308,4.7344,4.74,4.7415,4.747,4.7491,4.7522,4.7562,4.7564,4.7601,4.7618,4.7658,4.7669,4.7727,4.7737,4.7747,4.775,4.7749,4.7749,4.7767,4.7764,4.775,4.775,4.7749,4.7749,0,4.7287,4.7309,4.7373,4.7416,4.7428,4.7468,4.7504,4.7539,4.7556,4.7608,4.762,4.7647,4.7696,4.7714,4.777,4.7778,4.7847,4.7844,4.7836,4.7837,4.7877,4.7874,4.7995,4.8014,4.7908,4.7909,4.791,0,4.7333,4.7372,4.742,4.7448,4.7472,4.7516,4.7546,4.7562,4.7593,4.7639,4.7669,4.7718,4.7758,4.7834,4.7859,4.7904,4.7904,4.7943,4.791,4.791,4.7909,4.7908,4.7914,4.795,4.7951,4.7952,4.7953,0,4.7413,4.7423,4.7466,4.7514,4.755,4.7588,4.7625,4.7647,4.767,4.7704,4.7755,4.7786,4.7847,4.7896,4.7943,4.7964,4.7964,4.7963,4.7975,4.7976,4.7971,4.7978,4.7856,4.796,4.796,4.7959,4.7959,4.7958,4.7469,4.7505,4.7547,4.7595,4.7626,4.7661,4.7698,4.7722,4.7765,4.7818,4.7824,4.7879,4.7917,4.798,4.8004,4.8048,4.8037,4.8054,4.8059,4.8063,4.8069,4.7962,4.8056,4.8056,4.8055,4.8055,4.8055,0,4.7553,4.758,4.7625,4.7679,4.7718,4.7715,4.7756,4.7789,4.7839,4.7875,4.7916,4.7976,4.8024,4.8053,4.8102,4.8132,4.8133,4.8144,4.8144,4.815,4.8073,4.806,4.8143,4.8143,4.8143,4.8143,4.8143,4.8143,4.7601,4.7664,4.7679,4.7758,4.7784,4.7841,4.7866,4.7899,4.7928,4.7996,4.8038,4.8057,4.8091,4.8143,4.8188,4.8196,4.8215,4.8228,4.8235,4.8163,4.8154,4.8146,4.8134,4.8231,4.8231,4.8309,4.831,4.831]}]]